Hourly Data Report for July 17, 2021

LYNN LAKE
MANITOBA
Current Station Operator: NAVCAN

56°51'50.000" N
101°04'34.000" W
356.60 m
5061645
71078
YYL

Download Data

Hourly Data (July 2021)
Hourly Data Report for July 17, 2021
TIME
LST
Temp Definition
°C
Dew Point Definition
°C
Rel Hum Definition
%
Precip. Amount Definition
mm

Wind Dir Definition
10's deg

Wind Spd Definition
km/h
Visibility Definition
km
Stn Press Definition
kPa
Hmdx Definition


Wind Chill Definition


Weather Definition


00:00 8.3 3.8 73 0.0 4 15 16.1 97.95     LegendNANA
01:00 7.5 2.8 72 0.0 4 17 16.1 97.99     LegendNANA
02:00 6.5 3.5 81 0.0 5 9 16.1 98.05     LegendNANA
03:00 6.3 3.3 81 0.0 2 11 16.1 98.13     LegendNANA
04:00 6.3 2.8 78 0.0 3 15 16.1 98.19     LegendNANA
05:00 6.2 2.7 78 0.0 4 11 16.1 98.24     LegendNANA
06:00 6.8 2.9 76 0.0 4 18 16.1 98.25     LegendNANA
07:00 8.3 3.0 69 0.0 7 18 16.1 98.34     LegendNANA
08:00 8.7 3.2 68 0.0 7 13 16.1 98.36     LegendNANA
09:00 10.2 2.9 60 0.0 8 17 16.1 98.37     LegendNANA
10:00 11.1 3.3 59 0.0 8 11 16.1 98.36     LegendNANA
11:00 12.2 3.7 56 0.0 11 17 16.1 98.33     LegendNANA
12:00 13.0 4.5 56 0.0 10 11 16.1 98.30     LegendNANA
13:00 12.9 3.9 54 0.0 6 17 16.1 98.25     LegendNANA
14:00 12.3 4.2 57 0.0 10 11 16.1 98.30     Rain
15:00 11.6 5.5 66 0.0 15 9 16.1 98.36     LegendNANA
16:00 11.6 6.4 70 0.0 12 11 16.1 98.31     LegendNANA
17:00 12.2 6.0 66 0.0 8 11 16.1 98.23     LegendNANA
18:00 11.5 7.0 74 0.0 5 13 16.1 98.20     Rain
19:00 10.9 7.0 77 0.0 6 11 16.1 98.21     Rain
20:00 11.3 6.5 72 0.0 7 11 16.1 98.23     LegendNANA
21:00 11.1 6.5 73 0.0 8 11 16.1 98.25     LegendNANA
22:00 10.7 7.7 82 0.0 8 11 16.1 98.23     Rain
23:00 9.9 8.2 89 0.5 35 8 16.1 98.35     Moderate Rain

Notes on Data Quality.

Legend

  • E = Estimated
  • M = Missing
  • NA = Not Available*
  • [empty] = Indicates an unobserved value
Date modified: